• In Romania
  • List of Countries
  • For 7 days
  • Water Temperature
  • Satellite Maps
  • Weather Map
  • Weather Widgets
  • user-avatar
    Login

    Hourly Weather Djelfa

    Today, 20 July, Thursday

    Time Temperature Precipitation Wind Pressure Humidity
    00:00 +32°C° 0 mm 4 mps 667 mmHg 22%
    01:00 +30°C° 0 mm 4 mps 667 mmHg 22%
    02:00 +30°C° 0 mm 4 mps 666 mmHg 23%
    03:00 +29°C° 0 mm 4 mps 666 mmHg 23%
    04:00 +29°C° 0 mm 4 mps 666 mmHg 23%
    05:00 +29°C° 0 mm 4 mps 666 mmHg 23%
    06:00 +29°C° 0 mm 4 mps 667 mmHg 22%
    07:00 +32°C° 0 mm 4 mps 667 mmHg 20%
    08:00 +34°C° 0 mm 5 mps 667 mmHg 19%
    09:00 +35°C° 0 mm 5 mps 668 mmHg 17%
    10:00 +38°C° 0 mm 6 mps 668 mmHg 16%
    11:00 +39°C° 0 mm 6 mps 668 mmHg 14%
    12:00 +40°C° 0 mm 7 mps 668 mmHg 13%
    13:00 +41°C° 0 mm 7 mps 667 mmHg 12%
    14:00 +41°C° 0 mm 7 mps 667 mmHg 11%
    15:00 +41°C° 0 mm 7 mps 666 mmHg 11%
    16:00 +41°C° 0.1 mm 7 mps 666 mmHg 11%
    17:00 +40°C° 0.1 mm 7 mps 666 mmHg 12%
    18:00 +39°C° 0.1 mm 7 mps 666 mmHg 13%
    19:00 +38°C° 0.1 mm 6 mps 666 mmHg 15%
    20:00 +36°C° 0.1 mm 5 mps 666 mmHg 16%
    21:00 +35°C° 0.1 mm 4 mps 666 mmHg 18%
    22:00 +34°C° 0 mm 3 mps 666 mmHg 20%
    23:00 +34°C° 0 mm 3 mps 666 mmHg 21%

    Tomorrow, 21 July, Friday

    Time Temperature Precipitation Wind Pressure Humidity
    00:00 +32°C° 0 mm 2 mps 666 mmHg 23%
    01:00 +31°C° 0 mm 3 mps 665 mmHg 27%
    02:00 +32°C° 0 mm 4 mps 665 mmHg 32%
    03:00 +30°C° 0 mm 5 mps 665 mmHg 36%
    04:00 +30°C° 0 mm 4 mps 665 mmHg 36%
    05:00 +30°C° 0 mm 3 mps 665 mmHg 37%
    06:00 +29°C° 0 mm 3 mps 665 mmHg 37%
    07:00 +32°C° 0 mm 4 mps 666 mmHg 32%
    08:00 +33°C° 0 mm 4 mps 666 mmHg 27%
    09:00 +34°C° 0 mm 5 mps 667 mmHg 22%
    10:00 +36°C° 0 mm 5 mps 667 mmHg 18%
    11:00 +39°C° 0 mm 6 mps 667 mmHg 15%
    12:00 +40°C° 0 mm 6 mps 667 mmHg 12%
    13:00 +41°C° 0 mm 6 mps 667 mmHg 11%
    14:00 +41°C° 0 mm 7 mps 666 mmHg 10%
    15:00 +41°C° 0 mm 7 mps 666 mmHg 9%
    16:00 +41°C° 0 mm 7 mps 666 mmHg 10%
    17:00 +40°C° 0 mm 6 mps 666 mmHg 10%
    18:00 +39°C° 0 mm 6 mps 666 mmHg 11%
    19:00 +37°C° 0 mm 5 mps 666 mmHg 12%
    20:00 +36°C° 0 mm 4 mps 666 mmHg 14%
    21:00 +35°C° 0 mm 3 mps 666 mmHg 15%
    22:00 +34°C° 0 mm 4 mps 666 mmHg 17%
    23:00 +34°C° 0 mm 4 mps 666 mmHg 19%

    Day after tomorrow, 22 July, Saturday

    Time Temperature Precipitation Wind Pressure Humidity
    00:00 +33°C° 0 mm 5 mps 666 mmHg 21%
    01:00 +32°C° 0.1 mm 4 mps 666 mmHg 21%
    02:00 +31°C° 0.1 mm 3 mps 666 mmHg 22%
    03:00 +30°C° 0.1 mm 3 mps 666 mmHg 23%
    04:00 +30°C° 0.1 mm 3 mps 666 mmHg 23%
    05:00 +30°C° 0.1 mm 4 mps 666 mmHg 24%
    06:00 +30°C° 0.1 mm 5 mps 667 mmHg 24%
    07:00 +33°C° 0 mm 6 mps 667 mmHg 20%
    08:00 +35°C° 0 mm 7 mps 668 mmHg 17%
    09:00 +38°C° 0 mm 8 mps 669 mmHg 13%
    10:00 +40°C° 0 mm 8 mps 669 mmHg 12%
    11:00 +41°C° 0 mm 8 mps 669 mmHg 11%
    12:00 +43°C° 0 mm 9 mps 669 mmHg 10%
    13:00 +43°C° 0 mm 8 mps 669 mmHg 9%
    14:00 +43°C° 0 mm 8 mps 669 mmHg 9%
    15:00 +43°C° 0 mm 7 mps 669 mmHg 9%
    16:00 +43°C° 0 mm 7 mps 668 mmHg 9%
    17:00 +41°C° 0 mm 7 mps 668 mmHg 10%
    18:00 +41°C° 0 mm 7 mps 668 mmHg 10%
    19:00 +39°C° 0.1 mm 6 mps 669 mmHg 13%
    20:00 +37°C° 0.1 mm 5 mps 669 mmHg 15%
    21:00 +35°C° 0.1 mm 4 mps 669 mmHg 17%
    22:00 +35°C° 0.1 mm 4 mps 669 mmHg 18%
    23:00 +34°C° 0.1 mm 4 mps 669 mmHg 19%

    23 July, Sunday

    Time Temperature Precipitation Wind Pressure Humidity
    00:00 +34°C° 0.1 mm 4 mps 669 mmHg 20%
    01:00 +34°C° 0 mm 5 mps 669 mmHg 20%
    02:00 +33°C° 0 mm 5 mps 669 mmHg 21%
    03:00 +33°C° 0 mm 6 mps 669 mmHg 22%
    04:00 +33°C° 0 mm 6 mps 669 mmHg 22%
    05:00 +33°C° 0 mm 6 mps 669 mmHg 21%
    06:00 +33°C° 0 mm 6 mps 670 mmHg 20%
    07:00 +34°C° 0 mm 7 mps 670 mmHg 18%
    08:00 +37°C° 0 mm 8 mps 671 mmHg 16%
    09:00 +39°C° 0 mm 9 mps 671 mmHg 13%
    10:00 +40°C° 0 mm 9 mps 671 mmHg 12%
    11:00 +41°C° 0 mm 8 mps 671 mmHg 11%
    12:00 +43°C° 0 mm 8 mps 671 mmHg 10%
    13:00 +43°C° 0 mm 8 mps 671 mmHg 10%
    14:00 +43°C° 0 mm 7 mps 671 mmHg 9%
    15:00 +44°C° 0 mm 7 mps 670 mmHg 9%
    16:00 +43°C° 0 mm 7 mps 670 mmHg 9%
    17:00 +43°C° 0 mm 7 mps 670 mmHg 9%
    18:00 +41°C° 0 mm 7 mps 670 mmHg 9%
    19:00 +40°C° 0 mm 6 mps 670 mmHg 10%
    20:00 +39°C° 0 mm 6 mps 670 mmHg 11%
    21:00 +37°C° 0 mm 5 mps 670 mmHg 12%
    22:00 +36°C° 0 mm 5 mps 670 mmHg 13%
    23:00 +35°C° 0 mm 5 mps 670 mmHg 13%

    24 July, Monday

    Time Temperature Precipitation Wind Pressure Humidity
    00:00 +34°C° 0 mm 5 mps 669 mmHg 14%
    01:00 +33°C° 0 mm 4 mps 669 mmHg 18%
    02:00 +32°C° 0 mm 4 mps 668 mmHg 23%
    03:00 +30°C° 0 mm 3 mps 668 mmHg 27%
    04:00 +31°C° 0 mm 2 mps 668 mmHg 27%
    05:00 +31°C° 0 mm 2 mps 668 mmHg 27%
    06:00 +31°C° 0 mm 1 mps 669 mmHg 26%
    07:00 +34°C° 0 mm 2 mps 669 mmHg 22%
    08:00 +35°C° 0 mm 3 mps 669 mmHg 18%
    09:00 +37°C° 0 mm 4 mps 670 mmHg 14%
    10:00 +39°C° 0 mm 5 mps 670 mmHg 13%
    11:00 +40°C° 0 mm 5 mps 670 mmHg 12%
    12:00 +41°C° 0 mm 6 mps 670 mmHg 11%
    13:00 +40°C° 0 mm 6 mps 669 mmHg 11%
    14:00 +40°C° 0 mm 5 mps 669 mmHg 12%
    15:00 +40°C° 0 mm 5 mps 668 mmHg 12%
    16:00 +39°C° 0 mm 5 mps 668 mmHg 13%
    17:00 +38°C° 0 mm 4 mps 668 mmHg 14%
    18:00 +37°C° 0 mm 4 mps 667 mmHg 15%
    19:00 +36°C° 0 mm 3 mps 667 mmHg 16%
    20:00 +35°C° 0 mm 3 mps 667 mmHg 17%
    21:00 +35°C° 0 mm 2 mps 667 mmHg 18%
    22:00 +34°C° 0 mm 2 mps 667 mmHg 19%
    23:00 +32°C° 0 mm 2 mps 667 mmHg 21%

    25 July, Tuesday

    Time Temperature Precipitation Wind Pressure Humidity
    00:00 +32°C° 0 mm 1 mps 667 mmHg 22%
    01:00 +31°C° 0 mm 1 mps 666 mmHg 25%
    02:00 +30°C° 0 mm 1 mps 666 mmHg 28%
    03:00 +29°C° 0 mm 1 mps 665 mmHg 31%
    04:00 +29°C° 0 mm 1 mps 666 mmHg 32%
    05:00 +29°C° 0 mm 2 mps 666 mmHg 34%
    06:00 +29°C° 0 mm 3 mps 666 mmHg 35%
    07:00 +31°C° 0 mm 3 mps 666 mmHg 30%
    08:00 +33°C° 0 mm 3 mps 667 mmHg 24%
    09:00 +35°C° 0 mm 3 mps 667 mmHg 19%
    10:00 +36°C° 0 mm 4 mps 667 mmHg 17%
    11:00 +38°C° 0 mm 4 mps 667 mmHg 15%
    12:00 +40°C° 0 mm 5 mps 667 mmHg 13%
    13:00 +39°C° 0.1 mm 6 mps 666 mmHg 14%
    14:00 +39°C° 0.1 mm 6 mps 666 mmHg 15%
    15:00 +38°C° 0.1 mm 7 mps 665 mmHg 16%
    16:00 +36°C° 0.3 mm 5 mps 665 mmHg 17%
    17:00 +35°C° 0.3 mm 4 mps 665 mmHg 19%
    18:00 +34°C° 0.3 mm 2 mps 665 mmHg 20%
    19:00 +34°C° 0 mm 2 mps 665 mmHg 21%
    20:00 +32°C° 0 mm 2 mps 665 mmHg 23%
    21:00 +31°C° 0 mm 1 mps 665 mmHg 25%
    22:00 +30°C° 0 mm 2 mps 666 mmHg 26%
    23:00 +30°C° 0 mm 2 mps 666 mmHg 27%
    Show more